SCP
-0 0 0 0 -0 -0 -0 -0 -0 -0 -0 -0 -0 -0 -0 -0 -0 -0 -0 -0 -0 -0 -0 -0 -0 -0 -0 -0 -0 -0 -0 -0 -0 -0 -0 -0 -0 -0 -0 -0 -0 -0 -0
-0 -0 0 0 -0 -0 -0 -0 -0 -0 -0 -0 -0 -0 -0 -0 -0 -0 -0 -0 -0 -0 -0 -0 -0 -0 -0 -0 -0 -0 -0 0 -0 -0 0 -0 -0 -0 -0 -0 -0 0 -0
-0 -0 -0 -0 -0 -0 0 0 0 -0 -0 -0 -0 -0 -0 -0 -0 -0 -0 -0 -0 -0 -0 -0 -0 -0 -0 -0 -0 -0 -0 0 0 0 0 0 0 -0 0 0 0 0 0
-0 -0 -0 -0 -0 -0 -0 0 0 -0 -0 -0 -0 -0 -0 -0 -0 -0 -0 -0 -0 -0 -0 -0 -0 -0 -0 -0 -0 -0 0 0 0 0 0 0 0 0 0 0 0 0 0
-0 -0 -0 -0 -0 -0 0 0 0 0 -0 -0 -0 -0 -0 -0 -0 -0 -0 -0 -0 -0 -0 -0 -0 -0 -0 -0 -0 0 -0 0 0 0 0 0 0 0 0 0 0 0 0
0 -0 -0 0 0 -0 -0 0 0 0 -0 -0 -0 -0 -0 -0 -0 -0 -0 -0 -0 -0 -0 -0 -0 -0 -0 -0 0 0 -0 0 0 0 0 0 0 0 0 0 0 0 0
-0 -0 0 0 0 0 0 -0 0 -0 0 -0 -0 -0 -0 -0 -0 -0 -0 -0 -0 -0 -0 -0 -0 -0 -0 -0 0 0 -0 -0 0 0 0 0 0 0 0 0 0 0 0
0 0 0 0 0 0 0 -0 0 0 0 -0 -0 -0 -0 -0 -0 -0 -0 -0 -0 -0 -0 -0 -0 -0 0 0 0 0 -0 -0 0 0 0 0 0 0 0 0 0 0 0
0 0 0 0 0 0 0 0 0 0 -0 -0 -0 -0 -0 -0 -0 -0 -0 -0 -0 -0 -0 -0 -0 -0 0 0 0 0 -0 -0 0 0 0 0 0 0 0 0 0 0 0
0 0 0 0 0 -0 0 -0 -0 -0 -0 -0 -0 -0 -0 -0 -0 -0 -0 -0 -0 -0 -0 -0 -0 0 0 0 0 0 0 0 0 0 0 0 0 0 0 0 0 -0 -0
0 0 0 0 -0 -0 -0 -0 -0 -0 -0 -0 -0 0 -0 -0 -0 -0 -0 -0 -0 -0 -0 -0 -0 0 0 0 0 0 0 0 0 0 0 0 0 0 0 0 -0 -0 -0
0 -0 0 0 0 0 0 -0 -0 -0 -0 0 0 0 0 0 0 -0 -0 -0 -0 -0 -0 -0 0 0 0 0 0 0 0 0 0 0 0 0 0 0 0 0 0 0 0
0 0 0 0 0 0 0 0 0 0 0 0 0 0 0 0 0 0 0 -0 -0 -0 -0 -0 0 0 0 0 0 0 0 0 0 0 0 0 0 0 0 0 0 0 0
0 0 0 0 0 0 0 0 0 0 0 0 0 0 0 0 0 0 0 0 0 0 0 0 0 0 0 0 0 0 0 0 0 0 0 0 0 0 0 0 0 0 0
0 0 0 0 0 0 0 0 0 0 0 0 0 0 0 0 0 0 0 0 0 0 0 0 0 0 0 0 0 0 0 0 0 0 0 0 0 0 0 0 0 0 0
0 0 0 0 0 0 0 0 0 0 0 0 0 0 0 0 0 0 0 0 0 0 0 0 0 0 0 0 0 0 0 0 0 0 0 0 0 0 0 0 0 0 0
0 0 0 0 0 0 0 0 0 0 0 0 0 0 0 0 0 0 0 0 0 0 0 0 0 0 0 0 0 0 0 0 0 0 0 0 0 0 0 0 0 0 0
0 0 0 0 0 0 0 0 0 0 0 0 0 0 0 0 0 0 0 0 0 0 0 0 0 0 0 0 0 0 0 0 0 0 0 0 0 0 0 0 0 0 0
0 0 0 0 0 0 0 0 0 0 0 0 0 0 0 0 0 0 0 0 0 0 0 0 0 0 0 0 0 0 0 0 0 0 0 0 0 0 0 0 0 0 0
0 0 0 0 0 0 0 0 0 0 0 0 0 0 0 0 0 0 0 0 0 0 0 0 0 0 0 0 0 0 0 0 0 0 0 0 0 0 0 0 0 0 0
0 0 0 0 0 0 0 0 0 0 0 0 0 0 0 0 0 0 0 0 0 0 0 0 0 0 0 0 0 0 0 0 0 0 0 0 0 0 0 0 0 0 0
0 0 0 0 0 0 0 0 0 0 0 0 0 0 0 0 0 0 0 0 0 0 0 0 0 0 0 0 0 0 0 0 0 0 0 0 0 0 0 0 0 0 0
0 0 0 0 0 0 0 0 0 0 0 0 0 0 0 0 0 0 0 0 0 0 0 0 0 0 0 0 0 0 0 0 0 0 0 0 0 0 0 0 0 0 0
0 0 0 0 0 0 0 0 0 0 0 0 0 0 0 0 0 0 0 0 0 0 0 0 0 0 0 0 0 0 0 0 0 0 0 0 0 0 0 0 0 0 0
0 0 0 0 0 0 0 0 0 0 0 0 0 0 0 0 0 0 0 0 0 0 0 0 0 0 0 0 0 0 0 0 0 0 0 0 0 0 0 0 0 0 0
0 0 0 0 0 0 0 0 0 0 0 0 0 0 0 0 0 0 0 0 0 0 0 0 0 0 0 0 0 0 0 0 0 0 0 0 0 0 0 0 0 0 0
Wind_Speed_500mb
25 27 22 11 10 11 15 22 20 19 16 16 18 18 18 21 24 28 34 34 28 25 26 24 24 24 24 25 23 23 27 31 32 35 35 33 33 32 33 37 35 38 41
31 28 21 11 10 13 16 23 23 18 13 12 10 13 18 23 28 31 30 34 30 30 32 29 29 27 28 26 27 29 29 30 35 46 41 35 37 37 36 37 37 38 38
29 27 21 17 14 13 16 19 23 21 15 11 10 11 21 28 28 25 22 23 27 29 29 30 34 33 33 35 33 30 30 33 42 49 34 33 36 37 37 37 37 37 37
29 24 20 17 14 14 17 18 17 20 16 11 14 24 32 32 26 21 23 26 30 28 28 31 33 32 33 33 33 31 32 34 42 34 28 27 31 36 36 36 36 36 36
30 23 20 18 15 18 20 19 15 17 19 22 28 35 30 27 23 21 22 18 24 28 29 29 30 31 32 32 35 36 35 38 42 30 29 28 28 35 36 36 37 38 38
28 23 25 20 17 21 22 13 16 18 20 26 30 31 37 28 24 21 20 18 23 27 28 28 29 29 29 32 34 37 34 40 29 29 27 31 32 34 35 36 37 38 38
27 21 27 22 20 24 20 15 13 16 20 25 28 29 32 26 21 21 21 22 24 26 27 27 27 27 29 29 30 32 32 37 29 29 30 30 31 33 34 35 35 36 36
27 25 25 23 20 26 21 18 12 14 18 24 28 27 26 25 21 18 21 23 25 25 24 24 25 26 26 26 28 29 30 35 25 27 26 30 29 31 31 33 35 36 36
28 27 26 25 21 23 24 16 11 13 19 25 27 22 20 20 19 19 20 21 21 21 22 22 23 24 24 24 25 26 27 29 23 26 21 27 29 28 28 34 37 38 40
29 27 29 25 21 18 23 22 16 17 21 22 23 26 22 20 18 17 17 18 18 17 19 20 20 20 21 21 21 22 22 29 22 21 21 29 31 32 32 32 31 32 32
37 31 32 29 26 21 16 22 19 17 18 17 20 20 20 13 13 12 15 15 14 15 17 17 16 17 16 18 19 20 24 20 17 20 20 28 29 30 31 33 31 31 30
38 35 34 34 29 27 22 23 21 22 20 17 18 16 14 14 12 12 11 11 11 13 13 13 14 13 15 12 16 19 16 20 17 20 22 27 29 29 30 30 29 27 25
41 41 41 39 31 27 25 24 23 21 22 20 19 18 15 12 11 9 8 8 8 8 9 10 10 10 11 12 13 15 17 18 17 19 24 28 30 29 27 27 29 30 31
49 40 44 42 37 30 28 25 23 23 23 21 19 18 16 13 11 10 7 6 5 5 5 6 7 9 11 14 14 16 20 20 20 19 25 29 27 26 25 29 32 35 37
48 41 46 44 38 34 31 29 27 25 23 21 20 18 16 13 12 10 7 5 2 1 2 5 6 8 10 12 15 18 20 22 22 21 21 24 23 25 27 29 33 35 37
48 49 49 49 42 35 35 34 32 30 28 26 24 22 19 16 14 10 8 6 4 3 3 3 5 7 9 14 17 20 22 20 18 20 14 19 21 25 26 31 32 33 35
48 58 61 52 49 37 35 35 35 35 32 29 27 24 20 18 16 13 11 10 10 8 6 5 8 10 9 12 13 15 19 22 15 11 13 13 19 23 26 30 33 34 33
46 52 56 60 55 51 34 33 36 35 35 33 30 26 24 23 21 19 17 15 14 10 8 6 8 6 9 11 13 15 14 14 9 8 15 12 15 24 29 31 31 31 31
50 50 51 55 54 54 45 32 32 35 37 33 32 32 31 28 26 25 24 20 18 15 10 8 10 9 12 12 18 17 10 4 4 12 10 18 20 26 28 26 29 27 33
49 51 53 52 51 48 49 44 37 38 40 38 36 32 33 33 32 29 20 19 19 15 13 11 12 16 16 17 19 10 8 0 12 6 9 18 25 23 22 24 22 30 36
52 55 60 59 55 55 57 55 49 49 45 45 43 40 39 37 31 25 18 16 11 11 14 17 17 19 21 17 14 6 4 4 5 3 5 15 22 21 23 26 25 32 43
56 59 64 65 61 62 61 57 52 50 48 47 49 46 42 39 33 28 27 24 22 20 20 22 19 21 21 21 15 7 9 4 4 6 4 17 21 20 24 30 28 37 51
67 66 68 72 71 70 66 60 57 50 49 46 49 46 49 45 37 38 36 34 31 30 28 27 23 24 28 23 25 12 7 6 10 13 9 16 17 18 23 30 34 44 56
77 71 68 70 75 74 70 72 72 71 69 64 56 55 51 44 40 42 41 40 37 34 31 32 30 32 30 29 27 21 22 16 9 7 13 14 15 18 22 28 37 44 54
79 85 84 80 81 80 81 81 80 78 73 63 58 55 53 44 42 45 45 44 43 40 37 38 37 37 34 31 33 23 22 16 14 11 9 10 11 15 21 24 34 41 51
78 82 88 90 91 90 88 88 89 86 79 71 65 60 62 50 50 48 43 46 43 42 44 42 42 42 38 37 34 29 25 21 17 14 11 8 7 10 16 19 31 39 49
Wind_Direction_500mb
154 155 146 156 146 130 137 151 139 128 133 130 122 110 98 83 84 86 90 88 87 90 90 81 82 77 74 72 69 67 64 66 63 65 54 60 64 61 62 70 58 50 52
156 157 147 145 129 137 143 153 154 149 158 156 140 117 97 95 94 95 98 102 95 80 84 85 82 77 73 72 69 66 65 67 66 65 47 50 62 59 57 57 57 51 50
148 159 144 140 134 129 124 145 159 170 184 175 141 120 114 103 101 106 94 100 93 82 83 84 77 75 73 70 68 68 69 75 83 75 61 49 52 56 55 52 48 45 45
147 147 147 132 135 130 124 128 149 175 181 151 140 115 117 114 113 103 94 97 109 94 84 81 78 72 74 72 67 67 73 78 80 79 72 61 51 54 51 49 47 44 42
148 153 149 142 131 129 120 115 116 135 132 129 128 116 117 120 125 122 104 92 99 92 88 82 79 72 72 71 67 69 72 77 72 62 69 69 56 53 51 49 46 43 41
151 162 156 142 133 128 115 121 103 113 123 124 126 133 131 128 114 130 126 100 96 93 91 83 75 73 72 72 69 68 71 74 73 70 66 57 58 53 48 44 40 37 35
155 168 158 148 138 133 125 141 114 110 123 123 126 120 133 121 120 115 108 111 102 93 84 80 79 74 72 72 71 71 73 76 70 66 59 53 50 46 40 35 32 31 29
160 164 164 155 142 138 143 162 140 118 131 124 122 122 127 126 121 101 106 105 98 91 84 80 77 73 73 73 73 72 67 73 58 60 50 40 36 35 29 25 23 22 21
166 162 173 166 156 149 159 170 156 145 132 129 123 133 127 124 118 109 108 103 98 91 84 81 77 73 73 73 72 67 64 63 53 53 49 32 26 28 18 12 13 13 10
165 165 173 181 159 149 166 170 165 153 134 137 131 132 126 121 113 107 109 100 92 88 84 78 75 73 72 67 60 56 52 47 42 43 20 22 16 13 13 8 6 7 359
168 172 180 179 163 155 169 171 169 151 142 137 130 124 102 100 113 114 97 96 97 91 80 76 74 69 69 58 47 41 46 42 38 31 10 9 4 2 360 357 356 356 356
175 175 176 185 171 160 181 170 165 159 149 155 151 142 145 145 147 114 109 100 88 83 80 71 63 60 50 39 18 29 30 32 20 17 359 358 352 352 357 359 2 3 355
183 179 188 189 183 182 177 169 171 166 172 167 169 166 165 152 143 124 121 105 87 74 60 51 44 42 32 25 21 26 21 22 14 6 340 348 354 356 3 3 360 357 354
194 191 188 190 195 190 186 178 178 180 181 176 171 173 173 165 155 155 144 126 106 79 49 28 18 16 16 19 19 17 9 6 359 2 332 350 355 1 359 354 4 358 355
200 189 192 185 191 192 189 185 188 193 188 184 184 185 181 174 175 175 169 169 169 70 16 6 5 6 11 10 5 4 357 356 354 357 338 358 6 4 358 1 355 354 353
205 186 196 195 185 196 191 193 194 198 196 193 195 196 192 188 191 194 201 214 234 243 267 301 327 351 5 355 355 348 350 345 342 351 7 3 4 5 7 355 355 353 348
208 202 192 195 192 199 194 199 199 204 204 203 207 209 208 209 210 213 222 232 241 252 262 274 332 348 356 338 346 346 347 331 349 13 20 12 4 0 360 354 353 353 352
203 206 205 196 197 196 194 202 203 208 207 210 216 221 223 224 226 227 233 238 246 251 256 284 332 333 331 336 332 324 339 325 43 44 7 26 14 4 353 356 357 353 356
205 203 210 209 207 206 200 206 207 210 213 218 221 225 229 232 234 235 233 228 240 239 236 276 306 317 320 318 319 332 335 289 62 11 64 33 13 2 357 2 357 4 2
205 207 209 211 210 212 214 215 217 222 224 224 226 228 233 235 242 250 256 260 242 222 235 264 294 302 308 311 324 343 285 213 139 35 9 13 359 360 9 8 9 359 358
207 205 212 212 211 211 213 217 216 222 226 229 232 229 235 242 244 247 252 257 271 240 264 273 281 290 297 302 328 304 193 189 165 42 75 6 1 5 6 9 9 5 359
209 210 212 216 217 219 221 224 229 234 236 238 238 237 234 243 244 246 248 252 254 261 273 276 280 287 287 293 290 294 190 208 224 275 1 359 2 5 7 6 7 2 360
212 214 214 219 221 223 225 228 228 232 235 233 234 238 238 242 243 245 247 249 253 260 267 264 267 272 281 277 277 248 220 200 212 257 296 354 3 7 8 4 4 359 358
217 216 218 219 222 226 226 228 230 231 234 237 238 238 242 242 242 241 246 250 254 257 253 255 264 270 270 273 271 257 234 223 180 181 298 331 351 3 5 6 2 358 357
223 223 222 223 225 227 228 229 231 231 235 240 242 238 245 240 239 242 244 244 249 247 252 256 260 269 266 252 256 253 238 242 244 238 220 282 339 349 356 2 359 360 357
227 227 228 228 229 230 230 232 233 235 235 235 235 235 236 239 242 246 251 251 248 248 257 257 261 261 258 255 252 242 235 236 234 238 243 266 306 323 343 351 357 360 357
Wind_Speed_850mb
25 27 22 11 10 11 15 22 20 19 16 16 18 18 18 21 24 28 34 34 28 25 26 24 24 24 24 25 23 23 27 31 32 35 35 33 33 32 33 37 35 38 41
31 28 21 11 10 13 16 23 23 18 13 12 10 13 18 23 28 31 30 34 30 30 32 29 29 27 28 26 27 29 29 30 35 46 41 35 37 37 36 37 37 38 38
29 27 21 17 14 13 16 19 23 21 15 11 10 11 21 28 28 25 22 23 27 29 29 30 34 33 33 35 33 30 30 33 42 49 34 33 36 37 37 37 37 37 37
29 24 20 17 14 14 17 18 17 20 16 11 14 24 32 32 26 21 23 26 30 28 28 31 33 32 33 33 33 31 32 34 42 34 28 27 31 36 36 36 36 36 36
30 23 20 18 15 18 20 19 15 17 19 22 28 35 30 27 23 21 22 18 24 28 29 29 30 31 32 32 35 36 35 38 42 30 29 28 28 35 36 36 37 38 38
28 23 25 20 17 21 22 13 16 18 20 26 30 31 37 28 24 21 20 18 23 27 28 28 29 29 29 32 34 37 34 40 29 29 27 31 32 34 35 36 37 38 38
27 21 27 22 20 24 20 15 13 16 20 25 28 29 32 26 21 21 21 22 24 26 27 27 27 27 29 29 30 32 32 37 29 29 30 30 31 33 34 35 35 36 36
27 25 25 23 20 26 21 18 12 14 18 24 28 27 26 25 21 18 21 23 25 25 24 24 25 26 26 26 28 29 30 35 25 27 26 30 29 31 31 33 35 36 36
28 27 26 25 21 23 24 16 11 13 19 25 27 22 20 20 19 19 20 21 21 21 22 22 23 24 24 24 25 26 27 29 23 26 21 27 29 28 28 34 37 38 40
29 27 29 25 21 18 23 22 16 17 21 22 23 26 22 20 18 17 17 18 18 17 19 20 20 20 21 21 21 22 22 29 22 21 21 29 31 32 32 32 31 32 32
37 31 32 29 26 21 16 22 19 17 18 17 20 20 20 13 13 12 15 15 14 15 17 17 16 17 16 18 19 20 24 20 17 20 20 28 29 30 31 33 31 31 30
38 35 34 34 29 27 22 23 21 22 20 17 18 16 14 14 12 12 11 11 11 13 13 13 14 13 15 12 16 19 16 20 17 20 22 27 29 29 30 30 29 27 25
41 41 41 39 31 27 25 24 23 21 22 20 19 18 15 12 11 9 8 8 8 8 9 10 10 10 11 12 13 15 17 18 17 19 24 28 30 29 27 27 29 30 31
49 40 44 42 37 30 28 25 23 23 23 21 19 18 16 13 11 10 7 6 5 5 5 6 7 9 11 14 14 16 20 20 20 19 25 29 27 26 25 29 32 35 37
48 41 46 44 38 34 31 29 27 25 23 21 20 18 16 13 12 10 7 5 2 1 2 5 6 8 10 12 15 18 20 22 22 21 21 24 23 25 27 29 33 35 37
48 49 49 49 42 35 35 34 32 30 28 26 24 22 19 16 14 10 8 6 4 3 3 3 5 7 9 14 17 20 22 20 18 20 14 19 21 25 26 31 32 33 35
48 58 61 52 49 37 35 35 35 35 32 29 27 24 20 18 16 13 11 10 10 8 6 5 8 10 9 12 13 15 19 22 15 11 13 13 19 23 26 30 33 34 33
46 52 56 60 55 51 34 33 36 35 35 33 30 26 24 23 21 19 17 15 14 10 8 6 8 6 9 11 13 15 14 14 9 8 15 12 15 24 29 31 31 31 31
50 50 51 55 54 54 45 32 32 35 37 33 32 32 31 28 26 25 24 20 18 15 10 8 10 9 12 12 18 17 10 4 4 12 10 18 20 26 28 26 29 27 33
49 51 53 52 51 48 49 44 37 38 40 38 36 32 33 33 32 29 20 19 19 15 13 11 12 16 16 17 19 10 8 0 12 6 9 18 25 23 22 24 22 30 36
52 55 60 59 55 55 57 55 49 49 45 45 43 40 39 37 31 25 18 16 11 11 14 17 17 19 21 17 14 6 4 4 5 3 5 15 22 21 23 26 25 32 43
56 59 64 65 61 62 61 57 52 50 48 47 49 46 42 39 33 28 27 24 22 20 20 22 19 21 21 21 15 7 9 4 4 6 4 17 21 20 24 30 28 37 51
67 66 68 72 71 70 66 60 57 50 49 46 49 46 49 45 37 38 36 34 31 30 28 27 23 24 28 23 25 12 7 6 10 13 9 16 17 18 23 30 34 44 56
77 71 68 70 75 74 70 72 72 71 69 64 56 55 51 44 40 42 41 40 37 34 31 32 30 32 30 29 27 21 22 16 9 7 13 14 15 18 22 28 37 44 54
79 85 84 80 81 80 81 81 80 78 73 63 58 55 53 44 42 45 45 44 43 40 37 38 37 37 34 31 33 23 22 16 14 11 9 10 11 15 21 24 34 41 51
78 82 88 90 91 90 88 88 89 86 79 71 65 60 62 50 50 48 43 46 43 42 44 42 42 42 38 37 34 29 25 21 17 14 11 8 7 10 16 19 31 39 49
Wind_Direction_850mb
154 155 146 156 146 130 137 151 139 128 133 130 122 110 98 83 84 86 90 88 87 90 90 81 82 77 74 72 69 67 64 66 63 65 54 60 64 61 62 70 58 50 52
156 157 147 145 129 137 143 153 154 149 158 156 140 117 97 95 94 95 98 102 95 80 84 85 82 77 73 72 69 66 65 67 66 65 47 50 62 59 57 57 57 51 50
148 159 144 140 134 129 124 145 159 170 184 175 141 120 114 103 101 106 94 100 93 82 83 84 77 75 73 70 68 68 69 75 83 75 61 49 52 56 55 52 48 45 45
147 147 147 132 135 130 124 128 149 175 181 151 140 115 117 114 113 103 94 97 109 94 84 81 78 72 74 72 67 67 73 78 80 79 72 61 51 54 51 49 47 44 42
148 153 149 142 131 129 120 115 116 135 132 129 128 116 117 120 125 122 104 92 99 92 88 82 79 72 72 71 67 69 72 77 72 62 69 69 56 53 51 49 46 43 41
151 162 156 142 133 128 115 121 103 113 123 124 126 133 131 128 114 130 126 100 96 93 91 83 75 73 72 72 69 68 71 74 73 70 66 57 58 53 48 44 40 37 35
155 168 158 148 138 133 125 141 114 110 123 123 126 120 133 121 120 115 108 111 102 93 84 80 79 74 72 72 71 71 73 76 70 66 59 53 50 46 40 35 32 31 29
160 164 164 155 142 138 143 162 140 118 131 124 122 122 127 126 121 101 106 105 98 91 84 80 77 73 73 73 73 72 67 73 58 60 50 40 36 35 29 25 23 22 21
166 162 173 166 156 149 159 170 156 145 132 129 123 133 127 124 118 109 108 103 98 91 84 81 77 73 73 73 72 67 64 63 53 53 49 32 26 28 18 12 13 13 10
165 165 173 181 159 149 166 170 165 153 134 137 131 132 126 121 113 107 109 100 92 88 84 78 75 73 72 67 60 56 52 47 42 43 20 22 16 13 13 8 6 7 359
168 172 180 179 163 155 169 171 169 151 142 137 130 124 102 100 113 114 97 96 97 91 80 76 74 69 69 58 47 41 46 42 38 31 10 9 4 2 360 357 356 356 356
175 175 176 185 171 160 181 170 165 159 149 155 151 142 145 145 147 114 109 100 88 83 80 71 63 60 50 39 18 29 30 32 20 17 359 358 352 352 357 359 2 3 355
183 179 188 189 183 182 177 169 171 166 172 167 169 166 165 152 143 124 121 105 87 74 60 51 44 42 32 25 21 26 21 22 14 6 340 348 354 356 3 3 360 357 354
194 191 188 190 195 190 186 178 178 180 181 176 171 173 173 165 155 155 144 126 106 79 49 28 18 16 16 19 19 17 9 6 359 2 332 350 355 1 359 354 4 358 355
200 189 192 185 191 192 189 185 188 193 188 184 184 185 181 174 175 175 169 169 169 70 16 6 5 6 11 10 5 4 357 356 354 357 338 358 6 4 358 1 355 354 353
205 186 196 195 185 196 191 193 194 198 196 193 195 196 192 188 191 194 201 214 234 243 267 301 327 351 5 355 355 348 350 345 342 351 7 3 4 5 7 355 355 353 348
208 202 192 195 192 199 194 199 199 204 204 203 207 209 208 209 210 213 222 232 241 252 262 274 332 348 356 338 346 346 347 331 349 13 20 12 4 0 360 354 353 353 352
203 206 205 196 197 196 194 202 203 208 207 210 216 221 223 224 226 227 233 238 246 251 256 284 332 333 331 336 332 324 339 325 43 44 7 26 14 4 353 356 357 353 356
205 203 210 209 207 206 200 206 207 210 213 218 221 225 229 232 234 235 233 228 240 239 236 276 306 317 320 318 319 332 335 289 62 11 64 33 13 2 357 2 357 4 2
205 207 209 211 210 212 214 215 217 222 224 224 226 228 233 235 242 250 256 260 242 222 235 264 294 302 308 311 324 343 285 213 139 35 9 13 359 360 9 8 9 359 358
207 205 212 212 211 211 213 217 216 222 226 229 232 229 235 242 244 247 252 257 271 240 264 273 281 290 297 302 328 304 193 189 165 42 75 6 1 5 6 9 9 5 359
209 210 212 216 217 219 221 224 229 234 236 238 238 237 234 243 244 246 248 252 254 261 273 276 280 287 287 293 290 294 190 208 224 275 1 359 2 5 7 6 7 2 360
212 214 214 219 221 223 225 228 228 232 235 233 234 238 238 242 243 245 247 249 253 260 267 264 267 272 281 277 277 248 220 200 212 257 296 354 3 7 8 4 4 359 358
217 216 218 219 222 226 226 228 230 231 234 237 238 238 242 242 242 241 246 250 254 257 253 255 264 270 270 273 271 257 234 223 180 181 298 331 351 3 5 6 2 358 357
223 223 222 223 225 227 228 229 231 231 235 240 242 238 245 240 239 242 244 244 249 247 252 256 260 269 266 252 256 253 238 242 244 238 220 282 339 349 356 2 359 360 357
227 227 228 228 229 230 230 232 233 235 235 235 235 235 236 239 242 246 251 251 248 248 257 257 261 261 258 255 252 242 235 236 234 238 243 266 306 323 343 351 357 360 357